Location: San Gennaro Vesuviano
(40.8833°N, 14.5333°E)
Time: 21:20:37
(UTC+00:00)

MetOp-B - Pass Details

Date: 22 April 2021
Orbit: 819 x 822 km, 98.7° (Epoch: 10 May)

Event Time Altitude Azimuth Distance (km) Brightness Sun altitude
Exits shadow 20:09:16 46° 183° (S) 1,098 4.5 -23.6°
Maximum altitude 20:10:54 75° 257° (WSW) 852 4.2 -23.8°
Drops below altitude 10° 20:16:17 10° 343° (NNW) 2,425 7.4 -24.6°
Sets 20:18:39 0° 345° (NNW) 3,361 8.3 -24.9°
